Weather History for K2G4 - May, 2014

Change the Weather History Date:

Wednesday, May 7, 2014

  Actual Average (KMGW) Record (KMGW)
Temperature  
Mean Temperature 56 °F 59 °F  
Max Temperature 68 °F 70 °F 90 °F (1969)
Min Temperature 44 °F 48 °F 27 °F (1970)
Degree Days  
Heating Degree Days 9 7  
Month to date heating degree days 53  
Since 1 July heating degree days 5036  
Cooling Degree Days 0 1  
Month to date cooling degree days 7  
Year to date cooling degree days 23  
Growing Degree Days 6 (Base 50)    
Moisture  
Dew Point 37 °F    
Average Humidity 58    
Maximum Humidity 100    
Minimum Humidity 32    
Precipitation  
Precipitation 0.00 in 0.14 in 1.81 in (1967)
Month to date precipitation 0.96  
Year to date precipitation 13.54  
Sea Level Pressure  
Sea Level Pressure 30.10 in    
Wind  
Wind Speed 13 mph (SE)    
Max Wind Speed 21 mph    
Max Gust Speed 25 mph    
Visibility 10 miles    
Events      
T = Trace of Precipitation, MM = Missing Value Source: NWS Daily Summary

Daily Weather History Graph

Daily Weather History Graph

Search for Another Location

Airport or City:

Trip Planner

Search our weather history database for the weather conditions in past years. The results will help you decide how hot, cold, wet, or windy it might be!

Date:

Astronomy

May. 07, 2014 Rise Set
Actual Time 6:11 AM EDT 8:17 PM EDT
Civil Twilight 5:41 AM EDT 8:46 PM EDT
Nautical Twilight 5:05 AM EDT 9:23 PM EDT
Astronomical Twilight 4:25 AM EDT 10:02 PM EDT
Moon 1:22 PM EDT (5/7) 2:07 AM EDT (5/7)
Length of Visible Light 15h 05m
Length of Day
14h 05m
First Quarter, 55% of the Moon is Illuminated
May 7
First Quarter
May 14
Full
May 21
Last Quarter
May 28
New
Jun 5
First Quarter

Hourly Weather History & Observations

Time (EDT) Temp. Windchill Dew Point Humidity Pressure Visibility Wind Dir Wind Speed Gust Speed Precip Events Conditions
12:10 AM 51.8 °F - 23.0 °F 33% 30.08 in 10.0 mi East 9.2 mph - N/A   Clear
12:30 AM 50.0 °F - 23.0 °F 35% 30.08 in 10.0 mi East 9.2 mph - N/A   Clear
12:50 AM 50.0 °F - 23.0 °F 35% 30.09 in 10.0 mi ESE 8.1 mph - N/A   Clear
1:10 AM 50.0 °F - 23.0 °F 35% 30.08 in 10.0 mi ESE 11.5 mph - N/A   Clear
1:30 AM 50.0 °F - 23.0 °F 35% 30.08 in 10.0 mi ESE 12.7 mph - N/A   Clear
1:50 AM 50.0 °F - 23.0 °F 35% 30.08 in 10.0 mi ESE 12.7 mph - N/A   Clear
2:10 AM 50.0 °F - 23.0 °F 35% 30.08 in 10.0 mi ESE 11.5 mph - N/A   Clear
2:30 AM 50.0 °F - 23.0 °F 35% 30.08 in 10.0 mi ESE 13.8 mph - N/A   Clear
2:50 AM 50.0 °F - 23.0 °F 35% 30.07 in 10.0 mi ESE 12.7 mph - N/A   Clear
3:10 AM 50.0 °F - 21.2 °F 32% 30.08 in 10.0 mi ESE 12.7 mph - N/A   Clear
3:30 AM 50.0 °F - 21.2 °F 32% 30.08 in 10.0 mi ESE 12.7 mph - N/A   Clear
3:50 AM 48.2 °F - 23.0 °F 37% 30.08 in 10.0 mi ESE 16.1 mph - N/A   Clear
4:10 AM 48.2 °F - 23.0 °F 37% 30.08 in 10.0 mi ESE 15.0 mph - N/A   Clear
4:30 AM 46.4 °F 40.1 °F 24.8 °F 43% 30.08 in 10.0 mi ESE 15.0 mph - N/A   Clear
5:10 AM 46.4 °F 39.8 °F 26.6 °F 46% 30.08 in 10.0 mi ESE 16.1 mph - N/A   Mostly Cloudy
5:30 AM 46.4 °F 39.8 °F 26.6 °F 46% 30.08 in 10.0 mi ESE 16.1 mph 23.0 mph N/A   Mostly Cloudy
5:50 AM 46.4 °F 39.8 °F 26.6 °F 46% 30.09 in 10.0 mi SE 16.1 mph 23.0 mph N/A   Mostly Cloudy
6:10 AM 46.4 °F 39.8 °F 26.6 °F 46% 30.10 in 10.0 mi SE 16.1 mph - N/A   Overcast
6:30 AM 46.4 °F 39.2 °F 28.4 °F 50% 30.10 in 10.0 mi ESE 18.4 mph 25.3 mph N/A   Mostly Cloudy
6:50 AM 46.4 °F 39.5 °F 28.4 °F 50% 30.11 in 10.0 mi SE 17.3 mph - N/A   Overcast
7:10 AM 46.4 °F 39.0 °F 28.4 °F 50% 30.10 in 10.0 mi SE 19.6 mph 23.0 mph N/A   Mostly Cloudy
7:30 AM 46.4 °F 39.2 °F 30.2 °F 53% 30.11 in 10.0 mi SE 18.4 mph 25.3 mph N/A   Scattered Clouds
7:50 AM 46.4 °F 38.7 °F 30.2 °F 53% 30.11 in 10.0 mi SE 20.7 mph 24.2 mph N/A   Scattered Clouds
8:10 AM 46.4 °F 39.0 °F 30.2 °F 53% 30.11 in 10.0 mi SE 19.6 mph 24.2 mph N/A   Scattered Clouds
8:30 AM 46.4 °F 39.2 °F 32.0 °F 57% 30.11 in 10.0 mi SE 18.4 mph 24.2 mph N/A   Scattered Clouds
9:10 AM 44.6 °F 38.4 °F 35.6 °F 71% 30.13 in 7.0 mi East 12.7 mph - N/A   Overcast
9:50 AM 44.6 °F 42.2 °F 44.6 °F 100% 30.20 in 7.0 mi North 4.6 mph - N/A   Overcast
10:30 AM 44.6 °F 40.2 °F 44.6 °F 100% 30.19 in 10.0 mi East 8.1 mph - N/A   Overcast
11:50 AM 50.0 °F - - N/A% 30.16 in 10.0 mi SSE 11.5 mph - N/A   Overcast
12:30 PM 53.6 °F - 53.6 °F 100% 30.15 in 10.0 mi SE 12.7 mph - N/A   Overcast
12:50 PM 55.4 °F - 50.0 °F 82% 30.15 in 10.0 mi SSE 12.7 mph - N/A   Scattered Clouds
1:30 PM 59.0 °F - 50.0 °F 72% 30.14 in 10.0 mi SSE 9.2 mph - N/A   Clear
2:50 PM 64.4 °F - 46.4 °F 52% 30.12 in 10.0 mi SE 9.2 mph - N/A   Clear
3:10 PM 64.4 °F - 46.4 °F 52% 30.11 in 10.0 mi SE 9.2 mph - N/A   Clear
3:30 PM 66.2 °F - 46.4 °F 49% 30.10 in 10.0 mi SE 10.4 mph 17.3 mph N/A   Clear
3:50 PM 68.0 °F - 46.4 °F 46% 30.10 in 10.0 mi SE 9.2 mph - N/A   Clear
4:10 PM 68.0 °F - 44.6 °F 43% 30.09 in 10.0 mi SE 9.2 mph - N/A   Clear
4:30 PM 68.0 °F - 46.4 °F 46% 30.09 in 10.0 mi SE 10.4 mph - N/A   Clear
4:50 PM 68.0 °F - 44.6 °F 43% 30.09 in 10.0 mi ESE 12.7 mph 16.1 mph N/A   Clear
5:10 PM 68.0 °F - 46.4 °F 46% 30.09 in 10.0 mi ESE 11.5 mph - N/A   Clear
5:30 PM 64.4 °F - 46.4 °F 52% 30.09 in 10.0 mi ESE 13.8 mph - N/A   Clear
5:50 PM 62.6 °F - 46.4 °F 55% 30.09 in 10.0 mi SE 12.7 mph - N/A   Clear
6:10 PM 62.6 °F - 46.4 °F 55% 30.09 in 10.0 mi SE 11.5 mph - N/A   Clear
6:30 PM 60.8 °F - 46.4 °F 59% 30.09 in 10.0 mi SE 11.5 mph - N/A   Clear
6:50 PM 60.8 °F - 44.6 °F 55% 30.10 in 10.0 mi SE 12.7 mph - N/A   Clear
7:10 PM 59.0 °F - 44.6 °F 59% 30.10 in 10.0 mi SE 11.5 mph - N/A   Clear
7:30 PM 59.0 °F - 44.6 °F 59% 30.10 in 10.0 mi SE 11.5 mph 17.3 mph N/A   Clear
7:50 PM 57.2 °F - 44.6 °F 63% 30.11 in 10.0 mi SE 12.7 mph - N/A   Clear
8:10 PM 55.4 °F - 46.4 °F 72% 30.11 in 10.0 mi SE 13.8 mph - N/A   Clear
8:30 PM 53.6 °F - 46.4 °F 77% 30.11 in 10.0 mi SE 15.0 mph - N/A   Clear
8:50 PM 51.8 °F - 48.2 °F 88% 30.11 in 10.0 mi SE 16.1 mph - N/A   Clear
9:10 PM 51.8 °F - 50.0 °F 94% 30.11 in 10.0 mi SE 17.3 mph - N/A   Clear
9:30 PM 51.8 °F - 50.0 °F 94% 30.12 in 10.0 mi SE 17.3 mph - N/A   Clear
9:50 PM 50.0 °F - 50.0 °F 100% 30.12 in 10.0 mi SE 17.3 mph - N/A   Clear
10:10 PM 50.0 °F - 50.0 °F 100% 30.12 in 10.0 mi SE 15.0 mph 19.6 mph N/A   Clear
10:30 PM 50.0 °F - 50.0 °F 100% 30.12 in 10.0 mi SE 16.1 mph - N/A   Clear
10:50 PM 48.2 °F - 48.2 °F 100% 30.12 in 10.0 mi SE 12.7 mph - N/A   Clear
11:10 PM 48.2 °F - - N/A% 30.12 in 7.0 mi SE 15.0 mph - N/A   Clear
11:30 PM 48.2 °F - - N/A% 30.11 in 7.0 mi SSE 11.5 mph - N/A   Clear
11:50 PM 48.2 °F - - N/A% 30.11 in 5.0 mi SE 13.8 mph - N/A   Haze